| time (UTC) | temp F | wind direction | speed MPH | gust MPH | rain 1hr in | rain 24hr in | rain mn in | humidity % | barometer mb |
| 20260506043938 | 66 | 283 | 4.0 | 0.0 | 0.00 | 0.00 | 0.14 | 46 | 1012.5 |
| 20260506043436 | 66 | 290 | 5.0 | 0.0 | 0.00 | 0.00 | 0.14 | 47 | 1012.5 |
| 20260506042935 | 66 | 281 | 5.0 | 0.0 | 0.00 | 0.00 | 0.14 | 47 | 1012.4 |
| 20260506042454 | 66 | 270 | 4.0 | 0.0 | 0.00 | 0.00 | 0.14 | 48 | 1012.4 |
| 20260506041957 | 65 | 284 | 3.0 | 0.0 | 0.00 | 0.00 | 0.14 | 47 | 1012.4 |
| 20260506041459 | 65 | 269 | 3.0 | 0.0 | 0.00 | 0.00 | 0.14 | 47 | 1012.3 |
| 20260506040958 | 65 | 267 | 2.0 | 0.0 | 0.00 | 0.00 | 0.14 | 46 | 1012.2 |
| 20260506040506 | 65 | 278 | 1.0 | 0.0 | 0.00 | 0.00 | 0.14 | 44 | 1012.1 |
| 20260506040011 | 66 | 296 | 1.0 | 0.0 | 0.00 | 0.00 | 0.14 | 42 | 1012.0 |
| 20260506035450 | 66 | 290 | 2.0 | 0.0 | 0.00 | 0.00 | 0.14 | 42 | 1011.9 |
| 20260506034950 | 66 | 284 | 2.0 | 0.0 | 0.00 | 0.00 | 0.14 | 41 | 1011.8 |
| 20260506034510 | 66 | 286 | 1.0 | 0.0 | 0.00 | 0.00 | 0.14 | 40 | 1011.8 |
| 20260506034010 | 67 | 276 | 0.0 | 0.0 | 0.00 | 0.00 | 0.14 | 40 | 1011.7 |
| 20260506033447 | 67 | 275 | 0.0 | 0.0 | 0.00 | 0.00 | 0.14 | 39 | 1011.6 |
| 20260506032949 | 67 | 275 | 0.0 | 0.0 | 0.00 | 0.00 | 0.14 | 39 | 1011.5 |
| 20260506032448 | 67 | 273 | 1.0 | 0.0 | 0.00 | 0.00 | 0.14 | 38 | 1011.4 |
| 20260506031947 | 67 | 274 | 1.0 | 0.0 | 0.00 | 0.00 | 0.14 | 38 | 1011.4 |
| 20260506031504 | 67 | 268 | 1.0 | 0.0 | 0.00 | 0.00 | 0.14 | 37 | 1011.3 |
| 20260506030945 | 68 | 273 | 2.0 | 0.0 | 0.00 | 0.00 | 0.14 | 37 | 1011.2 |
| 20260506030454 | 68 | 275 | 2.0 | 0.0 | 0.00 | 0.00 | 0.14 | 36 | 1011.2 |
| 20260506030002 | 68 | 262 | 1.0 | 0.0 | 0.00 | 0.00 | 0.14 | 36 | 1011.1 |
| 20260506025439 | 68 | 285 | 1.0 | 0.0 | 0.00 | 0.00 | 0.14 | 35 | 1011.1 |
| 20260506024939 | 68 | 268 | 2.0 | 0.0 | 0.00 | 0.00 | 0.14 | 35 | 1011.0 |
| 20260506024444 | 68 | 243 | 3.0 | 0.0 | 0.00 | 0.00 | 0.14 | 34 | 1011.0 |
| 20260506024004 | 68 | 262 | 4.0 | 0.0 | 0.00 | 0.00 | 0.14 | 34 | 1010.9 |
| 20260506023441 | 69 | 273 | 3.0 | 0.0 | 0.00 | 0.00 | 0.14 | 33 | 1010.8 |
| 20260506022940 | 69 | 278 | 4.0 | 0.0 | 0.00 | 0.00 | 0.14 | 33 | 1010.6 |
| 20260506022440 | 69 | 246 | 5.0 | 0.0 | 0.00 | 0.00 | 0.14 | 32 | 1010.6 |
| 20260506022001 | 69 | 292 | 6.0 | 0.0 | 0.00 | 0.00 | 0.14 | 32 | 1010.5 |
| 20260506021441 | 69 | 294 | 6.0 | 0.0 | 0.00 | 0.00 | 0.14 | 31 | 1010.3 |
| 20260506020940 | 69 | 298 | 5.0 | 0.0 | 0.00 | 0.00 | 0.14 | 31 | 1010.3 |
| 20260506020454 | 70 | 281 | 6.0 | 0.0 | 0.00 | 0.00 | 0.14 | 31 | 1010.2 |
| 20260506015943 | 70 | 281 | 6.0 | 0.0 | 0.00 | 0.00 | 0.14 | 31 | 1010.2 |
| 20260506015442 | 70 | 225 | 6.0 | 0.0 | 0.00 | 0.00 | 0.14 | 31 | 1010.2 |
| 20260506014942 | 70 | 288 | 6.0 | 0.0 | 0.00 | 0.00 | 0.14 | 31 | 1010.1 |
| 20260506014441 | 71 | 275 | 6.0 | 0.0 | 0.00 | 0.00 | 0.14 | 32 | 1010.0 |
| 20260506013943 | 71 | 287 | 8.0 | 0.0 | 0.00 | 0.00 | 0.14 | 32 | 1010.1 |
| 20260506013442 | 71 | 305 | 9.0 | 0.0 | 0.00 | 0.00 | 0.14 | 32 | 1010.0 |
| 20260506012948 | 72 | 283 | 7.0 | 0.0 | 0.00 | 0.00 | 0.14 | 32 | 1009.9 |
| 20260506012447 | 72 | 304 | 7.0 | 0.0 | 0.00 | 0.00 | 0.14 | 31 | 1009.9 |
| 20260506011947 | 72 | 255 | 8.0 | 0.0 | 0.00 | 0.00 | 0.14 | 31 | 1009.9 |
| 20260506011445 | 73 | 275 | 7.0 | 0.0 | 0.00 | 0.00 | 0.14 | 31 | 1009.8 |
| 20260506010944 | 73 | 273 | 7.0 | 0.0 | 0.00 | 0.00 | 0.14 | 29 | 1009.8 |
| 20260506010515 | 73 | 231 | 7.0 | 0.0 | 0.00 | 0.00 | 0.14 | 29 | 1009.7 |
| 20260506005940 | 74 | 234 | 5.0 | 0.0 | 0.00 | 0.00 | 0.14 | 29 | 1009.6 |
| 20260506005503 | 74 | 283 | 6.0 | 0.0 | 0.00 | 0.00 | 0.14 | 29 | 1009.6 |
| 20260506004940 | 74 | 295 | 7.0 | 0.0 | 0.00 | 0.00 | 0.14 | 27 | 1009.5 |
| 20260506004502 | 75 | 280 | 6.0 | 0.0 | 0.00 | 0.00 | 0.14 | 27 | 1009.5 |
| 20260506003942 | 75 | 253 | 7.0 | 0.0 | 0.00 | 0.00 | 0.14 | 27 | 1009.5 |
| 20260506003442 | 75 | 196 | 7.0 | 0.0 | 0.00 | 0.00 | 0.14 | 26 | 1009.4 |
| 20260506003002 | 76 | 277 | 6.0 | 0.0 | 0.00 | 0.00 | 0.14 | 25 | 1009.4 |
| 20260506002439 | 76 | 217 | 5.0 | 0.0 | 0.00 | 0.00 | 0.14 | 26 | 1009.3 |
| 20260506001938 | 76 | 275 | 5.0 | 0.0 | 0.00 | 0.00 | 0.14 | 26 | 1009.3 |
| 20260506001436 | 76 | 202 | 4.0 | 0.0 | 0.00 | 0.00 | 0.14 | 25 | 1009.2 |
| 20260506000934 | 75 | 235 | 6.0 | 0.0 | 0.00 | 0.00 | 0.14 | 26 | 1009.3 |
| 20260506000507 | 76 | 207 | 7.0 | 0.0 | 0.00 | 0.00 | 0.14 | 26 | 1009.2 |
| 20260505235932 | 77 | 251 | 6.0 | 0.0 | 0.00 | 0.00 | 0.14 | 25 | 1009.2 |
| 20260505235437 | 78 | 300 | 6.0 | 0.0 | 0.00 | 0.00 | 0.14 | 24 | 1009.1 |
| 20260505235001 | 77 | 254 | 7.0 | 0.0 | 0.00 | 0.00 | 0.14 | 25 | 1009.2 |
| 20260505234442 | 77 | 223 | 7.0 | 0.0 | 0.00 | 0.00 | 0.14 | 24 | 1009.0 |
| 20260505233941 | 78 | 225 | 7.0 | 0.0 | 0.00 | 0.00 | 0.14 | 22 | 1009.1 |
| 20260505233440 | 78 | 250 | 5.0 | 0.0 | 0.00 | 0.00 | 0.14 | 25 | 1009.0 |
| 20260505232938 | 78 | 245 | 6.0 | 0.0 | 0.00 | 0.00 | 0.14 | 26 | 1009.0 |
| 20260505232439 | 77 | 217 | 6.0 | 0.0 | 0.00 | 0.00 | 0.14 | 27 | 1009.0 |
| 20260505231959 | 76 | 194 | 4.0 | 0.0 | 0.00 | 0.00 | 0.14 | 28 | 1009.0 |
| 20260505231457 | 76 | 281 | 6.0 | 0.0 | 0.00 | 0.00 | 0.14 | 27 | 1009.0 |
| 20260505230934 | 77 | 246 | 5.0 | 0.0 | 0.00 | 0.00 | 0.14 | 27 | 1009.1 |
| 20260505230446 | 76 | 207 | 5.0 | 0.0 | 0.00 | 0.00 | 0.14 | 29 | 1009.1 |
| 20260505225955 | 76 | 206 | 6.0 | 0.0 | 0.00 | 0.00 | 0.14 | 27 | 1009.3 |
| 20260505225455 | 76 | 250 | 6.0 | 0.0 | 0.00 | 0.00 | 0.14 | 27 | 1009.2 |
| 20260505224935 | 76 | 225 | 6.0 | 0.0 | 0.00 | 0.00 | 0.14 | 28 | 1009.2 |
| 20260505224434 | 76 | 234 | 6.0 | 0.0 | 0.00 | 0.00 | 0.14 | 27 | 1009.3 |
| 20260505223954 | 77 | 279 | 6.0 | 0.0 | 0.00 | 0.00 | 0.14 | 28 | 1009.3 |
| 20260505223514 | 77 | 208 | 6.0 | 0.0 | 0.00 | 0.00 | 0.14 | 26 | 1009.3 |
| 20260505222935 | 77 | 252 | 6.0 | 0.0 | 0.00 | 0.00 | 0.14 | 27 | 1009.4 |
| 20260505222434 | 78 | 202 | 7.0 | 0.0 | 0.00 | 0.00 | 0.14 | 27 | 1009.4 |
| 20260505222015 | 78 | 316 | 7.0 | 0.0 | 0.00 | 0.00 | 0.14 | 26 | 1009.4 |
| 20260505221436 | 78 | 240 | 7.0 | 0.0 | 0.00 | 0.00 | 0.14 | 28 | 1009.5 |
| 20260505220938 | 77 | 214 | 8.0 | 0.0 | 0.00 | 0.00 | 0.14 | 28 | 1009.5 |
| 20260505220447 | 77 | 261 | 6.0 | 0.0 | 0.00 | 0.00 | 0.14 | 28 | 1009.5 |
| 20260505215936 | 76 | 202 | 4.0 | 0.0 | 0.00 | 0.00 | 0.14 | 29 | 1009.5 |
| 20260505215454 | 75 | 203 | 6.0 | 0.0 | 0.00 | 0.00 | 0.14 | 31 | 1009.7 |
| 20260505214954 | 76 | 208 | 9.0 | 0.0 | 0.00 | 0.00 | 0.14 | 30 | 1010.7 |
| 20260505214452 | 77 | 201 | 9.0 | 0.0 | 0.00 | 0.00 | 0.14 | 28 | 1010.8 |
| 20260505213953 | 77 | 188 | 8.0 | 0.0 | 0.00 | 0.00 | 0.14 | 27 | 1010.7 |
| 20260505213455 | 77 | 310 | 8.0 | 0.0 | 0.00 | 0.00 | 0.14 | 28 | 1010.7 |
| 20260505212933 | 77 | 285 | 8.0 | 0.0 | 0.00 | 0.00 | 0.14 | 28 | 1010.8 |
| 20260505212455 | 77 | 289 | 9.0 | 0.0 | 0.00 | 0.00 | 0.14 | 26 | 1010.8 |
| 20260505211933 | 77 | 252 | 10.0 | 0.0 | 0.00 | 0.00 | 0.14 | 25 | 1010.9 |
| 20260505211435 | 77 | 202 | 10.0 | 0.0 | 0.00 | 0.00 | 0.14 | 26 | 1010.9 |
| 20260505210935 | 77 | 267 | 9.0 | 0.0 | 0.00 | 0.00 | 0.14 | 28 | 1011.0 |
| 20260505210506 | 77 | 232 | 9.0 | 0.0 | 0.00 | 0.00 | 0.14 | 28 | 1010.9 |
| 20260505205936 | 77 | 193 | 9.0 | 0.0 | 0.00 | 0.00 | 0.14 | 29 | 1011.0 |
| 20260505205435 | 77 | 228 | 10.0 | 0.0 | 0.00 | 0.00 | 0.14 | 28 | 1011.0 |
| 20260505204935 | 77 | 290 | 9.0 | 0.0 | 0.00 | 0.00 | 0.14 | 30 | 1011.0 |
| 20260505204454 | 77 | 247 | 8.0 | 0.0 | 0.00 | 0.00 | 0.14 | 30 | 1011.0 |
| 20260505203953 | 77 | 234 | 8.0 | 0.0 | 0.00 | 0.00 | 0.14 | 31 | 1011.0 |
| 20260505203514 | 77 | 215 | 9.0 | 0.0 | 0.00 | 0.00 | 0.14 | 33 | 1011.0 |
| 20260505202952 | 76 | 200 | 9.0 | 0.0 | 0.00 | 0.00 | 0.14 | 33 | 1011.1 |
| 20260505202511 | 76 | 212 | 8.0 | 0.0 | 0.00 | 0.00 | 0.14 | 33 | 1011.1 |
| 20260505202009 | 75 | 227 | 8.0 | 0.0 | 0.00 | 0.00 | 0.14 | 34 | 1011.1 |
| 20260505201451 | 75 | 193 | 8.0 | 0.0 | 0.00 | 0.00 | 0.14 | 37 | 1011.3 |
| 20260505201013 | 74 | 226 | 8.0 | 0.0 | 0.00 | 0.00 | 0.14 | 39 | 1011.2 |
| 20260505200500 | 74 | 257 | 6.0 | 0.0 | 0.00 | 0.00 | 0.14 | 38 | 1011.3 |
| 20260505200008 | 74 | 258 | 3.0 | 0.0 | 0.00 | 0.00 | 0.14 | 39 | 1011.2 |
| 20260505195446 | 73 | 260 | 2.0 | 0.0 | 0.00 | 0.00 | 0.14 | 47 | 1011.3 |
| 20260505194946 | 73 | 275 | 1.0 | 0.0 | 0.00 | 0.00 | 0.14 | 47 | 1011.3 |
| 20260505194444 | 73 | 279 | 1.0 | 0.0 | 0.00 | 0.00 | 0.14 | 47 | 1011.4 |
| 20260505193942 | 72 | 5 | 1.0 | 0.0 | 0.00 | 0.00 | 0.14 | 46 | 1011.3 |
| 20260505193447 | 73 | 291 | 1.0 | 0.0 | 0.00 | 0.00 | 0.14 | 47 | 1011.3 |
| 20260505192946 | 73 | 263 | 1.0 | 0.0 | 0.00 | 0.00 | 0.14 | 47 | 1011.4 |
| 20260505192450 | 73 | 44 | 1.0 | 0.0 | 0.00 | 0.00 | 0.14 | 45 | 1011.5 |
| 20260505191949 | 74 | 55 | 1.0 | 0.0 | 0.00 | 0.00 | 0.14 | 46 | 1011.5 |
| 20260505191450 | 73 | 179 | 0.0 | 0.0 | 0.00 | 0.00 | 0.14 | 48 | 1011.5 |
| 20260505190950 | 73 | 286 | 1.0 | 0.0 | 0.00 | 0.00 | 0.14 | 47 | 1011.6 |
| 20260505190458 | 73 | 286 | 2.0 | 0.0 | 0.00 | 0.00 | 0.14 | 48 | 1011.7 |
| 20260505185946 | 72 | 118 | 2.0 | 0.0 | 0.00 | 0.00 | 0.14 | 48 | 1011.7 |
| 20260505185445 | 72 | 69 | 1.0 | 0.0 | 0.00 | 0.00 | 0.14 | 49 | 1011.9 |
| 20260505184944 | 71 | 92 | 1.0 | 0.0 | 0.00 | 0.00 | 0.14 | 52 | 1012.0 |
| 20260505184506 | 71 | 355 | 1.0 | 0.0 | 0.00 | 0.00 | 0.14 | 51 | 1012.1 |
| 20260505183948 | 71 | 291 | 1.0 | 0.0 | 0.00 | 0.00 | 0.14 | 51 | 1012.2 |
| 20260505183448 | 71 | 291 | 1.0 | 0.0 | 0.00 | 0.00 | 0.14 | 51 | 1012.2 |
| 20260505182946 | 71 | 344 | 1.0 | 0.0 | 0.00 | 0.00 | 0.14 | 51 | 1012.2 |
| 20260505182505 | 71 | 301 | 0.0 | 0.0 | 0.00 | 0.00 | 0.14 | 52 | 1012.3 |
| 20260505181942 | 70 | 227 | 1.0 | 0.0 | 0.00 | 0.00 | 0.14 | 52 | 1012.3 |
| 20260505181442 | 70 | 208 | 1.0 | 0.0 | 0.00 | 0.00 | 0.14 | 54 | 1012.4 |
| 20260505180942 | 70 | 234 | 1.0 | 0.0 | 0.00 | 0.00 | 0.14 | 55 | 1012.4 |
| 20260505180512 | 70 | 205 | 1.0 | 0.0 | 0.00 | 0.00 | 0.14 | 53 | 1012.3 |
| 20260505175944 | 71 | 236 | 0.0 | 0.0 | 0.00 | 0.00 | 0.14 | 53 | 1012.3 |
| 20260505175443 | 71 | 207 | 0.0 | 0.0 | 0.00 | 0.00 | 0.14 | 53 | 1012.4 |
| 20260505174941 | 71 | 186 | 1.0 | 0.0 | 0.00 | 0.00 | 0.14 | 52 | 1012.3 |
| 20260505174443 | 71 | 214 | 1.0 | 0.0 | 0.00 | 0.00 | 0.14 | 51 | 1012.4 |
| 20260505173946 | 72 | 233 | 0.0 | 0.0 | 0.00 | 0.00 | 0.14 | 51 | 1012.5 |
| 20260505173445 | 72 | 192 | 0.0 | 0.0 | 0.00 | 0.00 | 0.14 | 51 | 1012.5 |
| 20260505173007 | 72 | 205 | 1.0 | 0.0 | 0.00 | 0.00 | 0.14 | 49 | 1012.4 |
| 20260505172444 | 73 | 205 | 1.0 | 0.0 | 0.00 | 0.00 | 0.14 | 50 | 1012.5 |
| 20260505171944 | 72 | 166 | 0.0 | 0.0 | 0.00 | 0.00 | 0.14 | 52 | 1012.6 |
| 20260505171442 | 71 | 143 | 0.0 | 0.0 | 0.00 | 0.00 | 0.14 | 53 | 1012.5 |
| 20260505171006 | 70 | 156 | 0.0 | 0.0 | 0.00 | 0.00 | 0.14 | 56 | 1012.4 |
| 20260505170514 | 70 | 163 | 0.0 | 0.0 | 0.00 | 0.00 | 0.14 | 57 | 1012.4 |
| 20260505165941 | 69 | 259 | 0.0 | 0.0 | 0.00 | 0.00 | 0.14 | 56 | 1012.4 |
| 20260505165441 | 69 | 234 | 0.0 | 0.0 | 0.00 | 0.00 | 0.14 | 57 | 1012.4 |
| 20260505165005 | 69 | 204 | 0.0 | 0.0 | 0.00 | 0.00 | 0.14 | 60 | 1012.4 |
| 20260505164442 | 68 | 258 | 0.0 | 0.0 | 0.00 | 0.00 | 0.14 | 63 | 1012.4 |
| 20260505163941 | 67 | 258 | 0.0 | 0.0 | 0.00 | 0.00 | 0.14 | 64 | 1012.4 |
| 20260505163440 | 67 | 259 | 0.0 | 0.0 | 0.00 | 0.00 | 0.14 | 66 | 1012.4 |
| 20260505162942 | 66 | 259 | 0.0 | 0.0 | 0.00 | 0.00 | 0.14 | 70 | 1012.5 |
| 20260505162502 | 65 | 260 | 0.0 | 0.0 | 0.00 | 0.00 | 0.14 | 71 | 1012.6 |
| 20260505161940 | 65 | 260 | 0.0 | 0.0 | 0.00 | 0.00 | 0.14 | 70 | 1012.6 |
| 20260505161459 | 65 | 260 | 0.0 | 0.0 | 0.00 | 0.00 | 0.14 | 69 | 1012.6 |
| 20260505160937 | 65 | 260 | 0.0 | 0.0 | 0.00 | 0.00 | 0.14 | 68 | 1012.6 |
| 20260505160451 | 65 | 260 | 0.0 | 0.0 | 0.00 | 0.00 | 0.14 | 69 | 1012.5 |
| 20260505152940 | 64 | 274 | 0.0 | 0.0 | 0.00 | 0.00 | 0.14 | 74 | 1012.2 |
| 20260505152459 | 63 | 339 | 0.0 | 0.0 | 0.00 | 0.00 | 0.14 | 76 | 1012.2 |
| 20260505151938 | 63 | 339 | 0.0 | 0.0 | 0.00 | 0.00 | 0.14 | 76 | 1012.2 |
| 20260505151440 | 63 | 339 | 0.0 | 0.0 | 0.00 | 0.00 | 0.14 | 76 | 1012.2 |
| 20260505150938 | 63 | 339 | 0.0 | 0.0 | 0.00 | 0.00 | 0.14 | 78 | 1012.1 |
| 20260505150508 | 63 | 30 | 0.0 | 0.0 | 0.00 | 0.00 | 0.14 | 80 | 1012.2 |
| 20260505140447 | 61 | 53 | 0.0 | 0.0 | 0.00 | 0.00 | 0.14 | 81 | 1011.8 |
| 20260505124937 | 59 | 71 | 0.0 | 0.0 | 0.00 | 0.00 | 0.14 | 89 | 1011.0 |
| 20260505124457 | 59 | 90 | 0.0 | 0.0 | 0.00 | 0.00 | 0.14 | 88 | 1011.0 |
| 20260505123936 | 59 | 77 | 0.0 | 0.0 | 0.00 | 0.00 | 0.14 | 88 | 1011.0 |
| 20260505123435 | 59 | 41 | 0.0 | 0.0 | 0.00 | 0.00 | 0.14 | 88 | 1011.1 |
| 20260505122934 | 59 | 41 | 0.0 | 0.0 | 0.00 | 0.00 | 0.14 | 88 | 1011.0 |
| 20260505122435 | 59 | 41 | 0.0 | 0.0 | 0.00 | 0.00 | 0.14 | 87 | 1010.8 |
| 20260505121939 | 59 | 41 | 0.0 | 0.0 | 0.00 | 0.00 | 0.13 | 87 | 1010.9 |
| 20260505121438 | 59 | 41 | 0.0 | 0.0 | 0.00 | 0.00 | 0.13 | 87 | 1010.8 |
| 20260505120937 | 59 | 41 | 0.0 | 0.0 | 0.00 | 0.00 | 0.13 | 86 | 1010.4 |
| 20260505120446 | 59 | 41 | 0.0 | 0.0 | 0.00 | 0.00 | 0.13 | 86 | 1010.5 |
| 20260505115933 | 59 | 41 | 1.0 | 0.0 | 0.00 | 0.00 | 0.13 | 85 | 1010.6 |
| 20260505115436 | 58 | 41 | 1.0 | 0.0 | 0.00 | 0.00 | 0.13 | 85 | 1010.4 |
| 20260505114936 | 58 | 61 | 1.0 | 0.0 | 0.00 | 0.00 | 0.13 | 86 | 1010.4 |
| 20260505114434 | 58 | 68 | 0.0 | 0.0 | 0.00 | 0.00 | 0.13 | 88 | 1010.4 |
| 20260505113953 | 58 | 42 | 0.0 | 0.0 | 0.00 | 0.00 | 0.13 | 88 | 1010.3 |
| 20260505113513 | 58 | 45 | 0.0 | 0.0 | 0.00 | 0.00 | 0.13 | 88 | 1010.5 |
| 20260505112951 | 58 | 45 | 0.0 | 0.0 | 0.00 | 0.00 | 0.13 | 88 | 1010.8 |
| 20260505112432 | 58 | 45 | 0.0 | 0.0 | 0.00 | 0.00 | 0.13 | 89 | 1011.0 |
| 20260505111934 | 58 | 39 | 1.0 | 0.0 | 0.00 | 0.00 | 0.12 | 89 | 1010.7 |
| 20260505111453 | 58 | 40 | 2.0 | 0.0 | 0.00 | 0.00 | 0.12 | 89 | 1010.5 |
| 20260505111014 | 58 | 73 | 2.0 | 0.0 | 0.00 | 0.00 | 0.12 | 89 | 1010.7 |
| 20260505110446 | 58 | 59 | 0.0 | 0.0 | 0.00 | 0.00 | 0.12 | 89 | 1010.7 |
| 20260505102008 | 58 | 61 | 3.0 | 0.0 | 0.00 | 0.00 | 0.11 | 90 | 1012.3 |
| 20260505101445 | 58 | 73 | 2.0 | 0.0 | 0.00 | 0.00 | 0.11 | 91 | 1012.6 |
| 20260505100947 | 58 | 30 | 2.0 | 0.0 | 0.00 | 0.00 | 0.11 | 91 | 1012.7 |
| 20260505100456 | 58 | 71 | 2.0 | 0.0 | 0.00 | 0.00 | 0.11 | 91 | 1012.8 |
| 20260505095943 | 58 | 58 | 2.0 | 0.0 | 0.00 | 0.00 | 0.11 | 91 | 1012.8 |
| 20260505095448 | 58 | 111 | 2.0 | 0.0 | 0.00 | 0.00 | 0.11 | 91 | 1012.9 |
| 20260505094948 | 58 | 81 | 2.0 | 0.0 | 0.00 | 0.00 | 0.11 | 91 | 1012.8 |
| 20260505094507 | 58 | 52 | 2.0 | 0.0 | 0.00 | 0.00 | 0.10 | 91 | 1012.9 |
| 20260505093945 | 58 | 70 | 3.0 | 0.0 | 0.00 | 0.00 | 0.10 | 91 | 1012.9 |
| 20260505093449 | 58 | 98 | 3.0 | 0.0 | 0.00 | 0.00 | 0.10 | 91 | 1012.5 |
| 20260505092949 | 58 | 70 | 2.0 | 0.0 | 0.00 | 0.00 | 0.09 | 90 | 1013.1 |
| 20260505092450 | 58 | 109 | 4.0 | 0.0 | 0.00 | 0.00 | 0.08 | 90 | 1013.1 |
| 20260505091952 | 58 | 117 | 5.0 | 0.0 | 0.00 | 0.00 | 0.08 | 90 | 1013.4 |
| 20260505091514 | 59 | 92 | 4.0 | 0.0 | 0.00 | 0.00 | 0.08 | 90 | 1013.3 |
| 20260505091011 | 59 | 96 | 4.0 | 0.0 | 0.00 | 0.00 | 0.08 | 90 | 1013.2 |
| 20260505090503 | 59 | 86 | 4.0 | 0.0 | 0.00 | 0.00 | 0.08 | 90 | 1013.2 |
| 20260505085947 | 59 | 76 | 3.0 | 0.0 | 0.00 | 0.00 | 0.07 | 90 | 1013.3 |
| 20260505085446 | 59 | 118 | 3.0 | 0.0 | 0.00 | 0.00 | 0.07 | 90 | 1013.4 |
| 20260505085009 | 59 | 84 | 2.0 | 0.0 | 0.00 | 0.00 | 0.07 | 90 | 1013.6 |
| 20260505084450 | 59 | 93 | 2.0 | 0.0 | 0.00 | 0.00 | 0.07 | 89 | 1013.3 |
| 20260505083949 | 59 | 67 | 2.0 | 0.0 | 0.00 | 0.00 | 0.07 | 89 | 1013.7 |
| 20260505083451 | 59 | 78 | 2.0 | 0.0 | 0.00 | 0.00 | 0.06 | 89 | 1014.1 |
| 20260505082952 | 59 | 76 | 1.0 | 0.0 | 0.00 | 0.00 | 0.06 | 89 | 1014.2 |
| 20260505082450 | 59 | 72 | 1.0 | 0.0 | 0.00 | 0.00 | 0.06 | 90 | 1014.5 |
| 20260505081948 | 59 | 88 | 0.0 | 0.0 | 0.00 | 0.00 | 0.06 | 89 | 1014.5 |
| 20260505081449 | 59 | 86 | 1.0 | 0.0 | 0.00 | 0.00 | 0.06 | 89 | 1014.4 |
| 20260505080932 | 59 | 94 | 1.0 | 0.0 | 0.00 | 0.00 | 0.06 | 89 | 1014.5 |
| 20260505080447 | 59 | 68 | 0.0 | 0.0 | 0.00 | 0.00 | 0.05 | 89 | 1014.7 |
| 20260505075955 | 59 | 66 | 0.0 | 0.0 | 0.00 | 0.00 | 0.05 | 89 | 1014.8 |
| 20260505075453 | 59 | 59 | 0.0 | 0.0 | 0.00 | 0.00 | 0.04 | 89 | 1014.9 |
| 20260505074935 | 59 | 40 | 0.0 | 0.0 | 0.00 | 0.00 | 0.04 | 88 | 1015.0 |
| 20260505074454 | 59 | 68 | 0.0 | 0.0 | 0.00 | 0.00 | 0.04 | 88 | 1015.1 |
| 20260505073938 | 59 | 74 | 0.0 | 0.0 | 0.00 | 0.00 | 0.03 | 88 | 1015.2 |
| 20260505073436 | 59 | 74 | 0.0 | 0.0 | 0.00 | 0.00 | 0.03 | 87 | 1015.3 |
| 20260505072941 | 59 | 74 | 0.0 | 0.0 | 0.00 | 0.00 | 0.02 | 87 | 1015.2 |
| 20260505072440 | 59 | 74 | 0.0 | 0.0 | 0.00 | 0.00 | 0.02 | 87 | 1015.0 |
| 20260505071939 | 59 | 74 | 0.0 | 0.0 | 0.00 | 0.00 | 0.02 | 88 | 1015.0 |
| 20260505071439 | 59 | 39 | 0.0 | 0.0 | 0.00 | 0.00 | 0.01 | 89 | 1015.0 |
| 20260505070959 | 59 | 38 | 0.0 | 0.0 | 0.00 | 0.00 | 0.01 | 88 | 1015.0 |
| 20260505070450 | 59 | 38 | 0.0 | 0.0 | 0.00 | 0.00 | 0.01 | 88 | 1015.0 |
| 20260505070000 | 59 | 38 | 0.0 | 0.0 | 0.00 | 0.00 | 0.00 | 88 | 1014.8 |
| 20260505065440 | 60 | 38 | 0.0 | 0.0 | 0.00 | 0.00 | 0.28 | 88 | 1014.7 |
| 20260505064940 | 60 | 38 | 0.0 | 0.0 | 0.00 | 0.00 | 0.28 | 88 | 1014.7 |
| 20260505064442 | 60 | 38 | 0.0 | 0.0 | 0.00 | 0.00 | 0.28 | 88 | 1014.8 |
| 20260505064005 | 60 | 38 | 0.0 | 0.0 | 0.00 | 0.00 | 0.27 | 87 | 1014.7 |
| 20260505063505 | 60 | 19 | 0.0 | 0.0 | 0.00 | 0.00 | 0.27 | 87 | 1014.6 |
| 20260505062942 | 60 | 46 | 0.0 | 0.0 | 0.00 | 0.00 | 0.26 | 87 | 1014.7 |
| 20260505062502 | 60 | 46 | 0.0 | 0.0 | 0.00 | 0.00 | 0.26 | 86 | 1014.6 |
| 20260505061940 | 60 | 46 | 1.0 | 0.0 | 0.00 | 0.00 | 0.25 | 86 | 1014.7 |
| 20260505061439 | 60 | 45 | 1.0 | 0.0 | 0.00 | 0.00 | 0.24 | 86 | 1014.7 |
| 20260505060938 | 60 | 34 | 1.0 | 0.0 | 0.00 | 0.00 | 0.23 | 86 | 1014.6 |
| 20260505060508 | 60 | 76 | 1.0 | 0.0 | 0.00 | 0.00 | 0.22 | 86 | 1014.6 |
| 20260505055954 | 60 | 30 | 1.0 | 0.0 | 0.00 | 0.00 | 0.21 | 85 | 1014.7 |
| 20260505055452 | 60 | 59 | 1.0 | 0.0 | 0.00 | 0.00 | 0.20 | 85 | 1014.7 |
| 20260505054951 | 60 | 59 | 2.0 | 0.0 | 0.00 | 0.00 | 0.20 | 85 | 1014.5 |
| 20260505054453 | 60 | 19 | 1.0 | 0.0 | 0.00 | 0.00 | 0.19 | 85 | 1014.4 |
| 20260505053952 | 60 | 40 | 0.0 | 0.0 | 0.00 | 0.00 | 0.18 | 84 | 1014.4 |
| 20260505053451 | 60 | 76 | 0.0 | 0.0 | 0.00 | 0.00 | 0.18 | 83 | 1014.5 |
| 20260505053013 | 60 | 76 | 0.0 | 0.0 | 0.00 | 0.00 | 0.17 | 83 | 1014.6 |
| 20260505052451 | 60 | 76 | 0.0 | 0.0 | 0.00 | 0.00 | 0.17 | 81 | 1014.4 |
| 20260505052011 | 60 | 76 | 0.0 | 0.0 | 0.00 | 0.00 | 0.16 | 82 | 1014.5 |
| 20260505051434 | 61 | 132 | 0.0 | 0.0 | 0.00 | 0.00 | 0.16 | 85 | 1014.5 |
| 20260505050937 | 61 | 132 | 0.0 | 0.0 | 0.00 | 0.00 | 0.16 | 85 | 1014.2 |
| 20260505050447 | 61 | 133 | 0.0 | 0.0 | 0.00 | 0.00 | 0.16 | 85 | 1014.2 |